Year,Month,Day,Hour,Minute,Value (Times are PST for temperature in C)
2015,06,21,00,00,15.60
2015,06,21,00,01,15.60
2015,06,21,00,02,15.60
2015,06,21,00,03,15.60
2015,06,21,00,04,15.60
2015,06,21,00,05,15.50
2015,06,21,00,06,15.50
2015,06,21,00,09,15.40
2015,06,21,00,10,15.40
2015,06,21,00,11,15.40
2015,06,21,00,12,15.30
2015,06,21,00,13,15.30
2015,06,21,00,14,15.30
2015,06,21,00,15,15.30
2015,06,21,00,16,15.30
2015,06,21,00,17,15.20
2015,06,21,00,18,15.20
2015,06,21,00,20,15.20
2015,06,21,00,21,15.20
2015,06,21,00,22,15.20
2015,06,21,00,23,15.20
2015,06,21,00,24,15.20
2015,06,21,00,25,15.20
2015,06,21,00,26,15.20
2015,06,21,00,27,15.20
2015,06,21,00,28,15.20
2015,06,21,00,29,15.20
2015,06,21,00,30,15.20
2015,06,21,00,32,15.20
2015,06,21,00,33,15.10
2015,06,21,00,34,15.10
2015,06,21,00,35,15.10
2015,06,21,00,36,15.10
2015,06,21,00,37,15.10
2015,06,21,00,38,15.10
2015,06,21,00,39,15.10
2015,06,21,00,40,15.00
2015,06,21,00,41,15.00
2015,06,21,00,42,14.90
2015,06,21,00,43,14.90
2015,06,21,00,44,14.90
2015,06,21,00,46,14.80
2015,06,21,00,47,14.80
2015,06,21,00,48,14.80
2015,06,21,00,49,14.70
2015,06,21,00,50,14.70
2015,06,21,00,51,14.60
2015,06,21,00,52,14.60
2015,06,21,00,53,14.60
2015,06,21,00,54,14.60
2015,06,21,00,55,14.60
2015,06,21,00,56,14.50
2015,06,21,00,57,14.50
2015,06,21,00,58,14.50
2015,06,21,00,59,14.40
2015,06,21,01,00,14.40
2015,06,21,01,01,14.40
2015,06,21,01,03,14.40
2015,06,21,01,04,14.30
2015,06,21,01,05,14.30
2015,06,21,01,06,14.30
2015,06,21,01,07,14.30
2015,06,21,01,08,14.30
2015,06,21,01,09,14.30
2015,06,21,01,10,14.30
2015,06,21,01,11,14.30
2015,06,21,01,12,14.30
2015,06,21,01,13,14.30
2015,06,21,01,14,14.30
2015,06,21,01,15,14.40
2015,06,21,01,16,14.40
2015,06,21,01,17,14.40
2015,06,21,01,18,14.40
2015,06,21,01,20,14.40
2015,06,21,01,23,14.30
2015,06,21,01,24,14.30
2015,06,21,01,25,14.30
2015,06,21,01,26,14.20
2015,06,21,01,27,14.20
2015,06,21,01,28,14.10
2015,06,21,01,29,14.00
2015,06,21,01,30,13.90
2015,06,21,01,31,13.90
2015,06,21,01,32,13.80
2015,06,21,01,33,13.80
2015,06,21,01,34,13.70
2015,06,21,01,35,13.70
2015,06,21,01,36,13.70
2015,06,21,01,37,13.60
2015,06,21,01,38,13.50
2015,06,21,01,39,13.50
2015,06,21,01,40,13.40
2015,06,21,01,41,13.40
2015,06,21,01,42,13.30
2015,06,21,01,43,13.30
2015,06,21,01,44,13.30
2015,06,21,01,45,13.20
2015,06,21,01,46,13.20
2015,06,21,01,47,13.10
2015,06,21,01,48,13.10
2015,06,21,01,49,13.00
2015,06,21,01,50,12.90
2015,06,21,01,51,12.80
2015,06,21,01,52,12.80
2015,06,21,01,53,12.80
2015,06,21,01,54,12.70
2015,06,21,01,55,12.70
2015,06,21,01,56,12.70
2015,06,21,01,57,12.60
2015,06,21,01,58,12.60
2015,06,21,01,59,12.60
2015,06,21,02,00,12.60
2015,06,21,02,01,12.60
2015,06,21,02,02,12.60
2015,06,21,02,03,12.50
2015,06,21,02,04,12.50
2015,06,21,02,05,12.50
2015,06,21,02,06,12.40
2015,06,21,02,07,12.40
2015,06,21,02,08,12.40
2015,06,21,02,09,12.40
2015,06,21,02,10,12.40
2015,06,21,02,11,12.40
2015,06,21,02,12,12.30
2015,06,21,02,13,12.30
2015,06,21,02,14,12.30
2015,06,21,02,15,12.30
2015,06,21,02,16,12.30
2015,06,21,02,17,12.40
2015,06,21,02,18,12.40
2015,06,21,02,19,12.40
2015,06,21,02,20,12.40
2015,06,21,02,21,12.40
2015,06,21,02,22,12.40
2015,06,21,02,23,12.40
2015,06,21,02,24,12.30
2015,06,21,02,25,12.30
2015,06,21,02,26,12.30
2015,06,21,02,27,12.30
2015,06,21,02,28,12.30
2015,06,21,02,29,12.30
2015,06,21,02,30,12.20
2015,06,21,02,31,12.20
2015,06,21,02,32,12.20
2015,06,21,02,33,12.20
2015,06,21,02,34,12.10
2015,06,21,02,35,12.10
2015,06,21,02,36,12.10
2015,06,21,02,37,12.10
2015,06,21,02,40,11.90
2015,06,21,02,41,11.90
2015,06,21,02,44,11.80
2015,06,21,02,45,11.80
2015,06,21,02,46,11.80
2015,06,21,02,47,11.80
2015,06,21,02,48,11.80
2015,06,21,02,49,11.80
2015,06,21,02,50,11.80
2015,06,21,02,51,11.80
2015,06,21,02,52,11.80
2015,06,21,02,53,11.80
2015,06,21,02,54,11.70
2015,06,21,02,55,11.70
2015,06,21,02,56,11.70
2015,06,21,02,57,11.70
2015,06,21,02,59,11.70
2015,06,21,03,00,11.70
2015,06,21,03,03,11.60
2015,06,21,03,04,11.60
2015,06,21,03,05,11.60
2015,06,21,03,06,11.60
2015,06,21,03,07,11.60
2015,06,21,03,08,11.50
2015,06,21,03,09,11.50
2015,06,21,03,10,11.50
2015,06,21,03,11,11.50
2015,06,21,03,12,11.40
2015,06,21,03,13,11.40
2015,06,21,03,14,11.40
2015,06,21,03,15,11.40
2015,06,21,03,16,11.40
2015,06,21,03,17,11.40
2015,06,21,03,18,11.30
2015,06,21,03,20,11.30
2015,06,21,03,21,11.30
2015,06,21,03,22,11.30
2015,06,21,03,23,11.20
2015,06,21,03,24,11.20
2015,06,21,03,25,11.20
2015,06,21,03,26,11.20
2015,06,21,03,27,11.10
2015,06,21,03,28,11.10
2015,06,21,03,29,11.10
2015,06,21,03,30,11.00
2015,06,21,03,31,11.00
2015,06,21,03,32,10.90
2015,06,21,03,33,10.90
2015,06,21,03,34,10.90
2015,06,21,03,35,10.90
2015,06,21,03,36,10.80
2015,06,21,03,37,10.80
2015,06,21,03,38,10.80
2015,06,21,03,39,10.80
2015,06,21,03,40,10.80
2015,06,21,03,41,10.80
2015,06,21,03,42,10.70
2015,06,21,03,43,10.70
2015,06,21,03,44,10.70
2015,06,21,03,45,10.70
2015,06,21,03,46,10.70
2015,06,21,03,47,10.70
2015,06,21,03,48,10.60
2015,06,21,03,49,10.60
2015,06,21,03,50,10.60
2015,06,21,03,51,10.60
2015,06,21,03,52,10.60
2015,06,21,03,53,10.50
2015,06,21,03,54,10.50
2015,06,21,03,55,10.40
2015,06,21,03,56,10.40
2015,06,21,03,57,10.40
2015,06,21,03,58,10.40
2015,06,21,03,59,10.40
2015,06,21,04,00,10.40
2015,06,21,04,01,10.30
2015,06,21,04,02,10.30
2015,06,21,04,03,10.30
2015,06,21,04,04,10.30
2015,06,21,04,05,10.30
2015,06,21,04,06,10.30
2015,06,21,04,07,10.30
2015,06,21,04,08,10.30
2015,06,21,04,09,10.30
2015,06,21,04,10,10.20
2015,06,21,04,11,10.20
2015,06,21,04,12,10.20
2015,06,21,04,13,10.20
2015,06,21,04,14,10.20
2015,06,21,04,15,10.20
2015,06,21,04,16,10.20
2015,06,21,04,17,10.20
2015,06,21,04,18,10.20
2015,06,21,04,19,10.20
2015,06,21,04,20,10.20
2015,06,21,04,21,10.20
2015,06,21,04,22,10.20
2015,06,21,04,23,10.10
2015,06,21,04,24,10.10
2015,06,21,04,25,10.10
2015,06,21,04,26,10.10
2015,06,21,04,27,10.10
2015,06,21,04,28,10.10
2015,06,21,04,29,10.10
2015,06,21,04,30,10.10
2015,06,21,04,31,10.10
2015,06,21,04,32,10.10
2015,06,21,04,34,10.10
2015,06,21,04,35,10.10
2015,06,21,04,36,10.10
2015,06,21,04,37,10.00
2015,06,21,04,38,10.00
2015,06,21,04,39,10.00
2015,06,21,04,40,10.00
2015,06,21,04,41,10.00
2015,06,21,04,42,10.00
2015,06,21,04,43,9.90
2015,06,21,04,44,9.90
2015,06,21,04,45,9.90
2015,06,21,04,46,9.90
2015,06,21,04,47,9.90
2015,06,21,04,48,9.80
2015,06,21,04,49,9.80
2015,06,21,04,50,9.80
2015,06,21,04,51,9.80
2015,06,21,04,52,9.80
2015,06,21,04,53,9.70
2015,06,21,04,54,9.70
2015,06,21,04,56,9.70
2015,06,21,04,57,9.70
2015,06,21,04,58,9.70
2015,06,21,04,59,9.70
2015,06,21,05,00,9.60
2015,06,21,05,01,9.60
2015,06,21,05,02,9.60
2015,06,21,05,03,9.60
2015,06,21,05,04,9.60
2015,06,21,05,05,9.60
2015,06,21,05,06,9.60
2015,06,21,05,07,9.60
2015,06,21,05,08,9.60
2015,06,21,05,09,9.60
2015,06,21,05,10,9.60
2015,06,21,05,11,9.60
2015,06,21,05,12,9.60
2015,06,21,05,15,9.60
2015,06,21,05,16,9.60
2015,06,21,05,19,9.60
2015,06,21,05,20,9.60
2015,06,21,05,21,9.60
2015,06,21,05,22,9.60
2015,06,21,05,23,9.60
2015,06,21,05,24,9.60
2015,06,21,05,25,9.60
2015,06,21,05,26,9.60
2015,06,21,05,27,9.60
2015,06,21,05,28,9.60
2015,06,21,05,29,9.60
2015,06,21,05,30,9.60
2015,06,21,05,31,9.60
2015,06,21,05,32,9.60
2015,06,21,05,33,9.60
2015,06,21,05,34,9.60
2015,06,21,05,35,9.60
2015,06,21,05,36,9.60
2015,06,21,05,37,9.60
2015,06,21,05,38,9.50
2015,06,21,05,39,9.50
2015,06,21,05,40,9.50
2015,06,21,05,41,9.50
2015,06,21,05,42,9.40
2015,06,21,05,43,9.40
2015,06,21,05,44,9.40
2015,06,21,05,45,9.40
2015,06,21,05,46,9.40
2015,06,21,05,47,9.40
2015,06,21,05,48,9.40
2015,06,21,05,49,9.40
2015,06,21,05,50,9.40
2015,06,21,05,51,9.30
2015,06,21,05,52,9.30
2015,06,21,05,53,9.30
2015,06,21,05,55,9.30
2015,06,21,05,56,9.30
2015,06,21,05,57,9.30
2015,06,21,05,58,9.30
2015,06,21,05,59,9.30
2015,06,21,06,02,9.40
2015,06,21,06,03,9.40
2015,06,21,06,06,9.50
2015,06,21,06,07,9.60
2015,06,21,06,08,9.60
2015,06,21,06,09,9.60
2015,06,21,06,10,9.60
2015,06,21,06,11,9.60
2015,06,21,06,12,9.60
2015,06,21,06,13,9.60
2015,06,21,06,14,9.70
2015,06,21,06,15,9.70
2015,06,21,06,16,9.70
2015,06,21,06,17,9.70
2015,06,21,06,18,9.70
2015,06,21,06,19,9.70
2015,06,21,06,20,9.70
2015,06,21,06,21,9.70
2015,06,21,06,22,9.80
2015,06,21,06,23,9.80
2015,06,21,06,24,9.80
2015,06,21,06,25,9.80
2015,06,21,06,26,9.80
2015,06,21,06,27,9.80
2015,06,21,06,28,9.80
2015,06,21,06,29,9.90
2015,06,21,06,30,9.90
2015,06,21,06,31,9.90
2015,06,21,06,32,9.90
2015,06,21,06,33,10.00
2015,06,21,06,34,10.00
2015,06,21,06,35,10.10
2015,06,21,06,36,10.10
2015,06,21,06,37,10.10
2015,06,21,06,38,10.20
2015,06,21,06,39,10.20
2015,06,21,06,40,10.20
2015,06,21,06,41,10.30
2015,06,21,06,42,10.30
2015,06,21,06,43,10.30
2015,06,21,06,44,10.40
2015,06,21,06,45,10.40
2015,06,21,06,46,10.40
2015,06,21,06,47,10.50
2015,06,21,06,48,10.60
2015,06,21,06,49,10.60
2015,06,21,06,50,10.70
2015,06,21,06,51,10.70
2015,06,21,06,52,10.80
2015,06,21,06,53,10.90
2015,06,21,06,54,11.00
2015,06,21,06,55,11.20
2015,06,21,06,56,11.20
2015,06,21,06,59,11.60
2015,06,21,07,00,11.70
2015,06,21,07,01,11.70
2015,06,21,07,02,11.80
2015,06,21,07,04,12.00
2015,06,21,07,05,12.10
2015,06,21,07,06,12.20
2015,06,21,07,07,12.20
2015,06,21,07,08,12.30
2015,06,21,07,09,12.30
2015,06,21,07,10,12.40
2015,06,21,07,11,12.50
2015,06,21,07,12,12.60
2015,06,21,07,13,12.60
2015,06,21,07,14,12.70
2015,06,21,07,15,12.70
2015,06,21,07,16,12.70
2015,06,21,07,17,12.80
2015,06,21,07,18,12.80
2015,06,21,07,19,12.80
2015,06,21,07,20,12.90
2015,06,21,07,21,12.90
2015,06,21,07,22,13.00
2015,06,21,07,23,13.10
2015,06,21,07,24,13.20
2015,06,21,07,25,13.30
2015,06,21,07,28,13.60
2015,06,21,07,29,13.70
2015,06,21,07,30,13.80
2015,06,21,07,31,13.90
2015,06,21,07,32,13.90
2015,06,21,07,33,14.00
2015,06,21,07,34,14.00
2015,06,21,07,35,14.00
2015,06,21,07,36,14.00
2015,06,21,07,37,14.00
2015,06,21,07,38,14.00
2015,06,21,07,39,14.00
2015,06,21,07,40,14.00
2015,06,21,07,41,14.00
2015,06,21,07,42,14.00
2015,06,21,07,43,14.00
2015,06,21,07,44,14.00
2015,06,21,07,45,14.00
2015,06,21,07,46,14.00
2015,06,21,07,47,14.10
2015,06,21,07,48,14.10
2015,06,21,07,49,14.20
2015,06,21,07,50,14.20
2015,06,21,07,51,14.20
2015,06,21,07,52,14.20
2015,06,21,07,53,14.20
2015,06,21,07,54,14.20
2015,06,21,07,55,14.20
2015,06,21,07,56,14.20
2015,06,21,07,57,14.30
2015,06,21,07,58,14.30
2015,06,21,07,59,14.30
2015,06,21,08,00,14.40
2015,06,21,08,02,14.50
2015,06,21,08,03,14.60
2015,06,21,08,04,14.70
2015,06,21,08,05,14.80
2015,06,21,08,06,14.80
2015,06,21,08,07,14.80
2015,06,21,08,08,14.80
2015,06,21,08,09,14.90
2015,06,21,08,10,14.90
2015,06,21,08,11,14.90
2015,06,21,08,12,15.00
2015,06,21,08,13,15.00
2015,06,21,08,14,15.10
2015,06,21,08,15,15.10
2015,06,21,08,16,15.10
2015,06,21,08,17,15.10
2015,06,21,08,18,15.20
2015,06,21,08,19,15.20
2015,06,21,08,20,15.30
2015,06,21,08,21,15.30
2015,06,21,08,22,15.30
2015,06,21,08,23,15.40
2015,06,21,08,24,15.40
2015,06,21,08,25,15.50
2015,06,21,08,26,15.60
2015,06,21,08,27,15.70
2015,06,21,08,28,15.80
2015,06,21,08,29,15.90
2015,06,21,08,30,15.90
2015,06,21,08,31,16.10
2015,06,21,08,32,16.20
2015,06,21,08,33,16.30
2015,06,21,08,34,16.30
2015,06,21,08,35,16.40
2015,06,21,08,36,16.50
2015,06,21,08,37,16.60
2015,06,21,08,38,16.70
2015,06,21,08,39,16.70
2015,06,21,08,40,16.80
2015,06,21,08,41,16.80
2015,06,21,08,42,16.90
2015,06,21,08,43,16.90
2015,06,21,08,44,17.00
2015,06,21,08,45,17.10
2015,06,21,08,46,17.10
2015,06,21,08,47,17.20
2015,06,21,08,48,17.20
2015,06,21,08,49,17.30
2015,06,21,08,50,17.40
2015,06,21,08,51,17.40
2015,06,21,08,52,17.60
2015,06,21,08,53,17.60
2015,06,21,08,54,17.70
2015,06,21,08,55,17.80
2015,06,21,08,56,17.80
2015,06,21,08,57,17.90
2015,06,21,08,59,18.00
2015,06,21,09,00,18.10
2015,06,21,09,01,18.10
2015,06,21,09,02,18.10
2015,06,21,09,03,18.10
2015,06,21,09,04,18.10
2015,06,21,09,05,18.10
2015,06,21,09,06,18.10
2015,06,21,09,07,18.10
2015,06,21,09,08,18.20
2015,06,21,09,09,18.20
2015,06,21,09,10,18.20
2015,06,21,09,11,18.20
2015,06,21,09,12,18.30
2015,06,21,09,13,18.30
2015,06,21,09,14,18.30
2015,06,21,09,15,18.40
2015,06,21,09,16,18.40
2015,06,21,09,17,18.50
2015,06,21,09,18,18.60
2015,06,21,09,19,18.60
2015,06,21,09,20,18.70
2015,06,21,09,21,18.70
2015,06,21,09,22,18.70
2015,06,21,09,23,18.70
2015,06,21,09,24,18.80
2015,06,21,09,25,18.80
2015,06,21,09,26,18.90
2015,06,21,09,27,18.90
2015,06,21,09,28,18.90
2015,06,21,09,29,19.00
2015,06,21,09,30,19.00
2015,06,21,09,31,19.10
2015,06,21,09,32,19.20
2015,06,21,09,33,19.20
2015,06,21,09,34,19.30
2015,06,21,09,35,19.40
2015,06,21,09,36,19.50
2015,06,21,09,37,19.60
2015,06,21,09,38,19.70
2015,06,21,09,39,19.70
2015,06,21,09,40,19.80
2015,06,21,09,41,19.80
2015,06,21,09,42,19.80
2015,06,21,09,43,19.90
2015,06,21,09,44,19.90
2015,06,21,09,45,20.00
2015,06,21,09,46,20.10
2015,06,21,09,47,20.20
2015,06,21,09,48,20.30
2015,06,21,09,49,20.30
2015,06,21,09,50,20.40
2015,06,21,09,51,20.50
2015,06,21,09,52,20.60
2015,06,21,09,53,20.60
2015,06,21,09,54,20.70
2015,06,21,09,55,20.70
2015,06,21,09,56,20.80
2015,06,21,09,57,20.80
2015,06,21,09,58,20.90
2015,06,21,09,59,20.90
2015,06,21,10,00,21.00
2015,06,21,10,01,21.00
2015,06,21,10,02,21.10
2015,06,21,10,03,21.10
2015,06,21,10,04,21.20
2015,06,21,10,05,21.20
2015,06,21,10,06,21.30
2015,06,21,10,07,21.40
2015,06,21,10,08,21.40
2015,06,21,10,09,21.40
2015,06,21,10,10,21.50
2015,06,21,10,11,21.60
2015,06,21,10,12,21.60
2015,06,21,10,13,21.70
2015,06,21,10,14,21.70
2015,06,21,10,15,21.70
2015,06,21,10,16,21.80
2015,06,21,10,17,21.80
2015,06,21,10,18,21.80
2015,06,21,10,19,21.80
2015,06,21,10,20,21.80
2015,06,21,10,21,21.80
2015,06,21,10,22,21.90
2015,06,21,10,23,21.90
2015,06,21,10,24,22.00
2015,06,21,10,25,22.00
2015,06,21,10,26,22.10
2015,06,21,10,27,22.20
2015,06,21,10,28,22.20
2015,06,21,10,29,22.20
2015,06,21,10,30,22.30
2015,06,21,10,31,22.30
2015,06,21,10,32,22.30
2015,06,21,10,33,22.40
2015,06,21,10,34,22.40
2015,06,21,10,35,22.40
2015,06,21,10,36,22.40
2015,06,21,10,37,22.50
2015,06,21,10,38,22.50
2015,06,21,10,39,22.60
2015,06,21,10,40,22.60
2015,06,21,10,41,22.60
2015,06,21,10,42,22.70
2015,06,21,10,43,22.70
2015,06,21,10,44,22.80
2015,06,21,10,45,22.80
2015,06,21,10,46,22.70
2015,06,21,10,47,22.70
2015,06,21,10,48,22.70
2015,06,21,10,49,22.70
2015,06,21,10,50,22.70
2015,06,21,10,51,22.60
2015,06,21,10,52,22.60
2015,06,21,10,53,22.70
2015,06,21,10,54,22.70
2015,06,21,10,55,22.80
2015,06,21,10,56,22.80
2015,06,21,10,57,22.90
2015,06,21,10,58,22.90
2015,06,21,10,59,23.00
2015,06,21,11,00,23.00
2015,06,21,11,01,23.00
2015,06,21,11,02,23.10
2015,06,21,11,03,23.00
2015,06,21,11,04,23.00
2015,06,21,11,05,23.10
2015,06,21,11,06,23.10
2015,06,21,11,07,23.20
2015,06,21,11,08,23.20
2015,06,21,11,09,23.30
2015,06,21,11,10,23.30
2015,06,21,11,11,23.20
2015,06,21,11,12,23.20
2015,06,21,11,13,23.20
2015,06,21,11,14,23.20
2015,06,21,11,15,23.10
2015,06,21,11,16,23.00
2015,06,21,11,17,22.90
2015,06,21,11,18,22.90
2015,06,21,11,21,22.90
2015,06,21,11,22,22.90
2015,06,21,11,23,22.90
2015,06,21,11,24,22.90
2015,06,21,11,25,22.90
2015,06,21,11,26,22.90
2015,06,21,11,28,22.90
2015,06,21,11,29,23.00
2015,06,21,11,30,23.00
2015,06,21,11,31,23.00
2015,06,21,11,32,22.90
2015,06,21,11,33,23.00
2015,06,21,11,34,23.00
2015,06,21,11,35,23.10
2015,06,21,11,36,23.10
2015,06,21,11,37,23.10
2015,06,21,11,38,23.10
2015,06,21,11,39,23.10
2015,06,21,11,40,23.10
2015,06,21,11,41,23.10
2015,06,21,11,42,23.10
2015,06,21,11,43,23.10
2015,06,21,11,44,23.20
2015,06,21,11,45,23.20
2015,06,21,11,46,23.20
2015,06,21,11,47,23.20
2015,06,21,11,48,23.20
2015,06,21,11,49,23.20
2015,06,21,11,50,23.20
2015,06,21,11,51,23.20
2015,06,21,11,52,23.20
2015,06,21,11,53,23.20
2015,06,21,11,54,23.30
2015,06,21,11,55,23.30
2015,06,21,11,56,23.40
2015,06,21,11,57,23.40
2015,06,21,11,58,23.60
2015,06,21,11,59,23.60
2015,06,21,12,00,23.60
2015,06,21,12,01,23.70
2015,06,21,12,02,23.70
2015,06,21,12,03,23.70
2015,06,21,12,04,23.90
2015,06,21,12,05,23.90
2015,06,21,12,06,24.10
2015,06,21,12,07,24.10
2015,06,21,12,08,24.20
2015,06,21,12,09,24.20
2015,06,21,12,10,24.30
2015,06,21,12,11,24.30
2015,06,21,12,12,24.30
2015,06,21,12,13,24.30
2015,06,21,12,14,24.30
2015,06,21,12,15,24.30
2015,06,21,12,16,24.40
2015,06,21,12,17,24.50
2015,06,21,12,18,24.60
2015,06,21,12,19,24.60
2015,06,21,12,20,24.50
2015,06,21,12,21,24.40
2015,06,21,12,22,24.40
2015,06,21,12,23,24.30
2015,06,21,12,24,24.30
2015,06,21,12,25,24.30
2015,06,21,12,26,24.30
2015,06,21,12,28,24.40
2015,06,21,12,29,24.50
2015,06,21,12,30,24.60
2015,06,21,12,31,24.60
2015,06,21,12,32,24.70
2015,06,21,12,33,24.80
2015,06,21,12,34,24.80
2015,06,21,12,35,24.90
2015,06,21,12,36,24.80
2015,06,21,12,37,24.80
2015,06,21,12,38,24.80
2015,06,21,12,39,24.80
2015,06,21,12,40,24.80
2015,06,21,12,41,24.80
2015,06,21,12,42,24.80
2015,06,21,12,43,24.80
2015,06,21,12,44,24.80
2015,06,21,12,45,24.80
2015,06,21,12,46,24.90
2015,06,21,12,47,24.90
2015,06,21,12,48,25.00
2015,06,21,12,49,25.10
2015,06,21,12,50,25.20
2015,06,21,12,51,25.20
2015,06,21,12,52,25.20
2015,06,21,12,53,25.20
2015,06,21,12,54,25.20
2015,06,21,12,55,25.10
2015,06,21,12,56,25.10
2015,06,21,12,57,25.20
2015,06,21,12,58,25.10
2015,06,21,12,59,25.10
2015,06,21,13,00,25.00
2015,06,21,13,01,24.90
2015,06,21,13,02,24.80
2015,06,21,13,04,24.80
2015,06,21,13,05,24.90
2015,06,21,13,06,24.90
2015,06,21,13,07,25.00
2015,06,21,13,08,25.10
2015,06,21,13,09,25.20
2015,06,21,13,10,25.20
2015,06,21,13,11,25.30
2015,06,21,13,12,25.40
2015,06,21,13,13,25.60
2015,06,21,13,14,25.60
2015,06,21,13,15,25.70
2015,06,21,13,16,25.80
2015,06,21,13,17,25.80
2015,06,21,13,18,25.90
2015,06,21,13,19,25.90
2015,06,21,13,20,26.00
2015,06,21,13,21,26.10
2015,06,21,13,22,26.20
2015,06,21,13,23,26.20
2015,06,21,13,24,26.30
2015,06,21,13,25,26.30
2015,06,21,13,26,26.30
2015,06,21,13,27,26.20
2015,06,21,13,28,26.20
2015,06,21,13,29,26.20
2015,06,21,13,30,26.20
2015,06,21,13,31,26.20
2015,06,21,13,32,26.20
2015,06,21,13,33,26.20
2015,06,21,13,34,26.20
2015,06,21,13,35,26.20
2015,06,21,13,36,26.20
2015,06,21,13,37,26.20
2015,06,21,13,38,26.20
2015,06,21,13,39,26.10
2015,06,21,13,40,26.10
2015,06,21,13,41,26.10
2015,06,21,13,42,26.10
2015,06,21,13,43,26.10
2015,06,21,13,44,26.10
2015,06,21,13,45,26.10
2015,06,21,13,46,26.10
2015,06,21,13,47,26.10
2015,06,21,13,48,26.20
2015,06,21,13,49,26.20
2015,06,21,13,50,26.20
2015,06,21,13,51,26.20
2015,06,21,13,52,26.20
2015,06,21,13,53,26.10
2015,06,21,13,54,26.10
2015,06,21,13,55,26.00
2015,06,21,13,56,26.00
2015,06,21,13,57,26.10
2015,06,21,13,58,26.10
2015,06,21,13,59,26.10
2015,06,21,14,00,26.20
2015,06,21,14,01,26.20
2015,06,21,14,02,26.10
2015,06,21,14,03,26.10
2015,06,21,14,04,26.20
2015,06,21,14,05,26.20
2015,06,21,14,06,26.30
2015,06,21,14,07,26.30
2015,06,21,14,08,26.30
2015,06,21,14,09,26.30
2015,06,21,14,10,26.20
2015,06,21,14,11,26.20
2015,06,21,14,12,26.20
2015,06,21,14,13,26.20
2015,06,21,14,14,26.20
2015,06,21,14,15,26.30
2015,06,21,14,16,26.30
2015,06,21,14,17,26.30
2015,06,21,14,18,26.30
2015,06,21,14,19,26.30
2015,06,21,14,20,26.30
2015,06,21,14,21,26.20
2015,06,21,14,24,26.20
2015,06,21,14,25,26.20
2015,06,21,14,26,26.20
2015,06,21,14,27,26.20
2015,06,21,14,28,26.30
2015,06,21,14,29,26.40
2015,06,21,14,30,26.40
2015,06,21,14,31,26.50
2015,06,21,14,32,26.50
2015,06,21,14,33,26.60
2015,06,21,14,34,26.60
2015,06,21,14,35,26.60
2015,06,21,14,36,26.70
2015,06,21,14,37,26.70
2015,06,21,14,38,26.60
2015,06,21,14,39,26.60
2015,06,21,14,40,26.60
2015,06,21,14,41,26.50
2015,06,21,14,42,26.50
2015,06,21,14,43,26.50
2015,06,21,14,44,26.40
2015,06,21,14,45,26.40
2015,06,21,14,46,26.50
2015,06,21,14,47,26.60
2015,06,21,14,48,26.60
2015,06,21,14,49,26.60
2015,06,21,14,50,26.70
2015,06,21,14,51,26.70
2015,06,21,14,52,26.70
2015,06,21,14,53,26.70
2015,06,21,14,54,26.80
2015,06,21,14,55,26.80
2015,06,21,14,56,26.80
2015,06,21,14,57,26.80
2015,06,21,14,58,26.80
2015,06,21,14,59,26.80
2015,06,21,15,00,26.80
2015,06,21,15,01,26.80
2015,06,21,15,02,26.90
2015,06,21,15,03,26.90
2015,06,21,15,04,26.90
2015,06,21,15,05,27.00
2015,06,21,15,06,27.10
2015,06,21,15,07,27.10
2015,06,21,15,08,27.20
2015,06,21,15,09,27.30
2015,06,21,15,10,27.30
2015,06,21,15,11,27.30
2015,06,21,15,12,27.20
2015,06,21,15,13,27.20
2015,06,21,15,14,27.10
2015,06,21,15,15,27.00
2015,06,21,15,16,27.00
2015,06,21,15,17,26.90
2015,06,21,15,18,26.90
2015,06,21,15,19,26.90
2015,06,21,15,20,26.90
2015,06,21,15,21,26.90
2015,06,21,15,22,26.90
2015,06,21,15,23,27.00
2015,06,21,15,24,27.00
2015,06,21,15,25,27.10
2015,06,21,15,26,27.10
2015,06,21,15,29,27.30
2015,06,21,15,30,27.30
2015,06,21,15,31,27.40
2015,06,21,15,32,27.40
2015,06,21,15,35,27.40
2015,06,21,15,36,27.50
2015,06,21,15,37,27.60
2015,06,21,15,38,27.60
2015,06,21,15,39,27.70
2015,06,21,15,40,27.70
2015,06,21,15,41,27.80
2015,06,21,15,42,27.80
2015,06,21,15,43,27.80
2015,06,21,15,44,27.90
2015,06,21,15,45,28.00
2015,06,21,15,46,28.10
2015,06,21,15,47,28.20
2015,06,21,15,48,28.30
2015,06,21,15,49,28.30
2015,06,21,15,50,28.40
2015,06,21,15,51,28.40
2015,06,21,15,52,28.40
2015,06,21,15,53,28.40
2015,06,21,15,54,28.40
2015,06,21,15,55,28.50
2015,06,21,15,56,28.50
2015,06,21,15,57,28.50
2015,06,21,15,58,28.40
2015,06,21,15,59,28.30
2015,06,21,16,00,28.20
2015,06,21,16,01,28.10
2015,06,21,16,02,28.00
2015,06,21,16,03,28.00
2015,06,21,16,04,28.00
2015,06,21,16,05,28.00
2015,06,21,16,06,27.40
2015,06,21,16,07,27.30
2015,06,21,16,08,27.20
2015,06,21,16,09,27.10
2015,06,21,16,10,27.10
2015,06,21,16,11,27.00
2015,06,21,16,12,26.90
2015,06,21,16,13,26.90
2015,06,21,16,14,26.90
2015,06,21,16,15,26.90
2015,06,21,16,16,26.90
2015,06,21,16,17,26.80
2015,06,21,16,18,26.80
2015,06,21,16,19,26.80
2015,06,21,16,20,26.80
2015,06,21,16,21,26.80
2015,06,21,16,22,26.80
2015,06,21,16,25,26.80
2015,06,21,16,26,26.80
2015,06,21,16,27,26.70
2015,06,21,16,28,26.60
2015,06,21,16,29,26.60
2015,06,21,16,30,26.50
2015,06,21,16,31,26.40
2015,06,21,16,32,26.40
2015,06,21,16,33,26.40
2015,06,21,16,34,26.40
2015,06,21,16,35,26.30
2015,06,21,16,36,26.30
2015,06,21,16,37,26.30
2015,06,21,16,38,26.30
2015,06,21,16,39,26.30
2015,06,21,16,40,26.30
2015,06,21,16,41,26.30
2015,06,21,16,42,26.30
2015,06,21,16,43,26.30
2015,06,21,16,44,26.30
2015,06,21,16,45,26.30
2015,06,21,16,46,26.30
2015,06,21,16,47,26.30
2015,06,21,16,48,26.30
2015,06,21,16,49,26.30
2015,06,21,16,50,26.30
2015,06,21,16,51,26.20
2015,06,21,16,52,26.20
2015,06,21,16,53,26.20
2015,06,21,16,54,26.20
2015,06,21,16,55,26.20
2015,06,21,16,56,26.30
2015,06,21,16,57,26.30
2015,06,21,16,58,26.30
2015,06,21,16,59,26.30
2015,06,21,17,00,26.30
2015,06,21,17,01,26.30
2015,06,21,17,02,26.30
2015,06,21,17,03,26.20
2015,06,21,17,04,26.20
2015,06,21,17,05,26.20
2015,06,21,17,06,26.30
2015,06,21,17,07,26.30
2015,06,21,17,08,26.30
2015,06,21,17,09,26.30
2015,06,21,17,10,26.30
2015,06,21,17,11,26.40
2015,06,21,17,12,26.30
2015,06,21,17,13,26.30
2015,06,21,17,14,26.30
2015,06,21,17,15,26.30
2015,06,21,17,16,26.30
2015,06,21,17,17,26.30
2015,06,21,17,18,26.30
2015,06,21,17,19,26.20
2015,06,21,17,20,26.20
2015,06,21,17,21,26.10
2015,06,21,17,22,26.10
2015,06,21,17,23,26.10
2015,06,21,17,24,26.00
2015,06,21,17,25,26.00
2015,06,21,17,26,26.00
2015,06,21,17,27,26.10
2015,06,21,17,29,26.00
2015,06,21,17,30,26.00
2015,06,21,17,31,26.00
2015,06,21,17,32,26.00
2015,06,21,17,33,26.00
2015,06,21,17,34,26.00
2015,06,21,17,35,26.00
2015,06,21,17,36,26.00
2015,06,21,17,39,26.10
2015,06,21,17,40,26.10
2015,06,21,17,41,26.10
2015,06,21,17,42,26.00
2015,06,21,17,43,25.90
2015,06,21,17,44,25.90
2015,06,21,17,45,26.00
2015,06,21,17,46,26.00
2015,06,21,17,47,26.00
2015,06,21,17,48,26.00
2015,06,21,17,49,26.00
2015,06,21,17,50,26.00
2015,06,21,17,51,26.00
2015,06,21,17,52,26.00
2015,06,21,17,54,25.90
2015,06,21,17,55,25.90
2015,06,21,17,56,25.80
2015,06,21,17,58,25.80
2015,06,21,17,59,25.80
2015,06,21,18,00,25.80
2015,06,21,18,01,25.80
2015,06,21,18,02,25.70
2015,06,21,18,03,25.70
2015,06,21,18,04,25.70
2015,06,21,18,05,25.70
2015,06,21,18,06,25.70
2015,06,21,18,07,25.60
2015,06,21,18,08,25.60
2015,06,21,18,09,25.60
2015,06,21,18,10,25.60
2015,06,21,18,11,25.60
2015,06,21,18,12,25.60
2015,06,21,18,13,25.60
2015,06,21,18,14,25.50
2015,06,21,18,15,25.50
2015,06,21,18,16,25.40